Wind_Speed
15 16 16 16 17 19 20 20 20 20 19 20 22 23 24 25 26 26 25 22 21 23 24 24 23 24 25 26 26 26 27 29 31 32 32 32 32 33 33 33 33 34 34 35 35 34 35 36 39 41 42 43 43 44 44 46 48 49 49 49 50 49 48 47 45 44 43 41 40 39 38 37 36 34
17 17 18 19 19 20 21 21 21 21 21 22 23 24 25 26 26 28 28 25 22 24 25 26 25 25 25 26 26 26 26 27 29 31 31 32 33 33 33 34 34 34 35 36 37 37 37 37 38 40 43 44 45 45 45 45 47 49 50 50 50 50 50 49 48 47 45 44 42 41 40 39 37 36
18 18 19 20 20 21 22 22 22 22 23 23 24 25 25 26 26 27 29 27 23 25 28 27 26 27 27 26 26 27 27 27 27 28 29 29 30 32 32 33 33 34 35 36 37 39 39 39 39 40 43 45 46 46 46 46 47 48 50 51 50 50 50 50 49 49 48 46 44 43 42 41 39 38
19 19 20 21 21 22 23 23 23 22 23 24 25 26 26 27 27 27 30 30 26 26 29 29 27 27 28 26 26 27 27 27 29 28 28 29 30 31 31 31 32 34 34 35 37 39 40 41 41 42 43 45 47 48 48 48 47 48 50 52 52 51 50 50 50 50 49 48 47 45 44 43 41 39
20 21 21 21 23 24 24 24 24 23 23 25 26 27 27 27 28 29 30 32 30 26 27 29 28 26 28 26 24 26 27 27 28 29 29 30 31 31 31 31 32 33 35 36 37 38 40 42 43 43 44 45 47 49 50 49 48 49 50 52 53 53 51 50 50 50 50 50 49 47 45 44 43 42
22 22 22 22 23 24 25 24 24 23 24 25 26 27 28 28 29 30 31 32 32 29 27 28 28 26 27 26 24 25 27 27 27 28 28 29 31 32 32 32 33 34 35 37 38 39 40 42 43 44 45 46 47 49 50 50 50 50 50 52 54 54 53 52 51 50 50 50 50 48 47 46 45 43
22 23 23 22 22 24 24 24 24 25 25 26 27 28 29 29 29 30 32 33 33 32 29 28 29 28 27 26 25 25 27 29 29 29 29 30 31 32 33 34 34 34 35 38 40 41 41 41 43 45 46 46 47 49 51 52 51 51 51 52 54 54 54 53 52 51 51 50 50 49 48 47 46 45
22 23 23 22 22 23 23 23 24 26 27 28 29 29 30 30 30 30 31 33 34 35 33 30 30 30 28 27 26 26 28 30 30 30 31 32 34 34 34 35 35 36 37 38 41 43 44 43 43 44 46 47 48 49 52 53 52 52 52 52 53 55 55 54 53 52 51 50 49 48 47 47 47 46
23 23 23 23 23 23 23 23 24 26 27 29 29 30 31 31 31 31 31 33 34 35 36 34 32 31 30 29 28 27 29 31 31 31 32 35 36 35 35 35 36 37 38 39 41 43 46 46 45 45 46 48 49 49 52 53 53 53 53 53 53 54 55 55 54 54 52 51 50 48 47 46 46 46
24 25 24 24 24 25 25 25 26 26 27 28 29 29 31 31 32 32 31 33 34 35 35 35 33 32 32 32 29 27 29 33 33 34 35 36 36 36 37 37 37 38 40 42 42 43 45 47 47 46 46 47 49 50 51 54 54 54 53 53 53 54 55 56 55 54 53 52 51 50 48 47 46 46
26 26 26 25 26 27 28 27 27 27 27 27 27 28 30 30 31 32 31 32 34 35 34 34 33 33 33 33 31 29 30 32 33 36 39 40 38 38 39 40 41 42 43 44 45 44 45 47 48 48 47 47 49 50 51 53 55 54 54 54 54 54 55 56 56 55 54 53 52 51 50 48 47 46
27 28 27 27 28 28 29 29 29 29 28 27 27 28 29 30 31 31 32 32 33 33 34 33 32 33 33 32 32 31 31 32 33 35 40 42 42 41 42 43 44 47 48 47 46 43 42 44 47 48 48 47 48 49 51 53 55 55 54 54 54 54 55 56 56 55 54 53 52 51 50 50 48 47
28 28 28 28 29 29 30 31 31 31 30 29 29 28 29 30 31 31 32 32 32 32 33 32 32 33 32 31 32 32 31 32 34 36 39 42 43 44 46 46 47 49 50 49 46 41 37 39 44 47 48 47 47 48 51 53 55 56 54 54 54 54 54 55 56 55 55 54 52 51 50 50 49 48
27 28 29 29 29 30 31 32 32 32 32 31 31 30 31 32 32 32 32 32 32 32 32 32 32 32 32 30 31 32 32 32 35 37 39 42 44 46 49 51 50 49 49 49 46 40 34 35 40 45 47 47 46 47 50 52 55 56 55 54 54 54 54 54 55 55 55 55 53 51 50 49 48 47
27 29 29 29 30 31 32 33 33 32 32 31 32 32 33 35 34 32 31 31 31 31 32 32 32 32 32 31 31 32 32 34 36 38 40 42 45 47 51 54 53 49 48 50 49 43 35 34 37 41 45 46 45 46 48 51 54 56 55 54 54 53 53 54 54 54 54 55 54 51 50 49 47 45
29 30 30 31 31 31 33 34 33 33 32 31 31 33 35 36 33 31 31 31 31 31 32 33 32 31 32 32 31 31 33 35 37 38 40 42 45 48 51 54 54 51 51 53 53 48 40 36 35 38 42 43 44 45 47 50 53 55 55 54 54 54 53 54 54 53 52 53 53 51 50 48 46 45
31 31 32 32 32 32 33 34 34 34 32 31 32 34 36 34 31 29 29 30 30 31 33 34 33 31 31 33 31 30 33 36 37 38 40 42 45 48 51 53 55 54 55 57 56 51 43 37 36 36 37 40 42 43 45 48 52 55 55 54 54 54 53 54 54 52 51 52 52 51 49 48 46 45
32 33 34 34 33 33 33 34 34 34 34 33 33 35 34 31 28 28 28 29 30 31 33 34 33 31 31 33 32 30 32 35 37 38 40 43 46 49 52 55 56 57 59 59 57 52 43 37 37 34 32 36 41 43 44 47 51 54 56 55 54 54 53 53 54 52 51 50 50 50 48 47 46 45
33 33 35 35 35 35 34 34 34 34 35 35 34 33 31 28 26 26 26 28 29 31 32 33 33 32 30 31 32 31 32 34 36 38 41 43 46 50 55 57 58 59 60 58 57 54 45 38 38 32 27 33 41 43 44 46 49 53 56 55 54 54 53 53 54 53 51 50 49 47 46 45 44 45
33 34 36 37 37 36 35 34 34 34 35 34 32 29 27 25 24 24 25 27 29 30 31 31 32 32 31 31 32 32 33 34 36 38 41 42 44 49 55 58 59 62 62 58 56 57 49 41 38 31 25 32 40 42 43 45 48 52 55 54 54 53 53 53 54 53 52 50 48 46 44 44 43 43
34 35 37 37 37 37 36 34 33 34 33 30 27 25 24 24 23 23 25 27 28 29 29 30 31 31 31 31 32 32 33 34 36 40 42 43 44 49 54 58 61 64 63 57 53 54 50 40 34 29 25 31 38 41 42 44 47 51 54 54 53 52 53 53 53 54 54 51 48 46 44 43 43 43
35 36 37 37 37 37 36 34 33 31 29 26 24 24 24 24 24 24 25 27 27 28 28 28 29 30 31 32 33 32 33 34 36 40 43 44 46 50 53 57 62 65 62 55 51 52 49 37 29 26 24 30 36 39 41 43 46 49 52 52 52 51 52 52 52 53 55 54 51 47 44 43 43 43
35 35 36 36 37 36 35 33 31 28 24 23 23 24 25 25 25 25 26 26 26 25 26 27 28 29 30 32 33 32 33 34 35 38 41 43 46 49 51 55 62 65 61 54 50 50 47 37 27 23 23 30 34 36 38 41 44 47 49 50 50 50 50 51 50 51 54 55 54 50 46 44 44 45
34 34 35 35 36 35 33 30 28 25 23 23 24 25 25 25 25 24 24 24 25 25 26 27 28 29 30 31 31 32 32 33 34 35 38 40 43 47 49 54 60 62 58 53 49 46 41 34 26 22 24 30 32 33 35 38 41 44 46 47 48 48 48 49 49 49 51 53 54 53 49 46 45 46
33 33 33 33 33 32 30 28 25 23 23 24 24 24 25 24 24 24 23 24 25 26 27 29 29 30 30 30 30 31 31 32 33 34 36 37 40 43 47 53 59 58 55 51 45 41 37 32 25 23 27 31 31 30 33 36 39 42 44 45 45 45 46 47 47 47 48 50 52 53 51 48 47 46
32 31 31 31 30 30 28 26 24 24 24 24 24 24 24 24 24 24 24 25 26 27 29 30 30 30 31 31 31 31 32 32 33 34 34 35 37 39 43 51 56 55 54 50 41 35 34 29 24 24 29 33 31 29 32 35 37 39 42 43 43 43 44 46 47 46 46 48 50 51 50 47 46 46
30 29 29 29 29 28 26 25 24 24 24 24 24 24 24 24 25 25 26 27 28 28 30 31 31 32 33 34 34 33 33 33 33 34 34 34 36 38 42 49 50 48 49 46 37 32 30 25 21 22 27 30 30 28 31 34 34 36 40 41 41 41 42 44 46 45 45 46 48 48 48 47 46 46
28 28 28 28 28 26 25 24 24 24 24 24 24 25 25 25 25 26 27 28 29 30 31 32 33 34 34 35 36 35 34 34 33 34 34 33 34 37 43 49 47 42 43 39 33 30 26 21 19 21 24 27 28 28 30 33 33 35 37 39 39 40 41 42 44 44 44 46 47 48 48 47 46 45
27 27 28 28 27 25 24 24 24 24 24 24 25 25 25 25 25 26 27 29 29 30 31 32 34 35 35 36 36 35 34 34 34 34 34 32 33 36 43 48 44 39 37 33 30 26 21 19 20 20 21 24 25 26 29 32 33 33 34 36 37 38 39 40 42 43 43 45 47 48 48 46 45 45
27 27 28 27 25 24 23 23 23 24 24 24 25 25 25 25 26 27 28 29 29 30 31 32 34 35 35 35 34 34 34 33 33 33 33 32 32 35 43 49 44 35 29 26 25 20 15 17 20 19 20 21 23 26 28 30 32 32 32 34 35 36 38 39 40 41 42 42 44 45 46 46 45 45
28 28 28 26 24 22 22 22 23 23 24 25 25 25 25 25 26 27 28 29 29 29 31 33 34 34 34 34 33 33 33 32 31 31 31 32 32 35 42 49 47 37 25 19 20 16 10 14 18 17 18 20 22 25 28 30 32 32 32 33 34 35 36 39 39 39 39 40 41 42 44 45 45 45
28 28 27 25 23 22 22 22 23 24 25 25 26 26 26 27 27 28 29 30 30 30 31 33 34 33 33 33 32 32 32 31 30 29 28 29 31 34 40 48 49 42 30 17 14 13 10 15 18 15 18 21 21 23 27 30 31 31 31 33 33 33 35 37 39 38 38 38 39 40 41 43 43 43
27 26 25 23 22 21 22 23 24 25 25 26 26 27 28 28 29 29 29 30 30 31 32 33 33 33 32 32 31 31 30 29 28 26 26 27 29 31 37 44 47 44 36 23 13 13 13 14 17 15 19 23 23 22 25 28 29 29 30 31 33 34 35 36 38 38 38 37 38 38 38 39 40 41
25 24 23 22 21 20 21 22 24 25 26 27 28 29 30 30 29 28 28 29 30 31 31 32 32 32 32 31 30 30 29 27 25 24 23 25 27 29 34 42 45 44 39 28 15 12 11 11 15 16 19 22 23 24 25 25 25 27 29 31 32 34 35 36 37 37 37 37 36 36 36 37 38 39
23 22 21 20 19 20 21 23 24 26 27 29 30 30 30 29 27 26 27 28 30 30 30 31 31 31 30 30 29 28 28 26 24 23 21 22 24 26 31 38 43 45 41 31 18 10 8 11 15 17 18 19 21 24 26 25 25 27 28 30 32 33 34 35 36 36 35 35 35 36 36 37 37 37
21 20 20 20 20 21 22 24 26 27 27 27 28 27 27 27 26 25 26 28 29 29 29 30 30 29 28 28 27 27 27 25 24 22 20 20 22 24 27 33 39 43 42 35 23 11 6 13 15 17 20 19 19 22 25 25 26 26 26 27 29 32 32 32 33 33 33 33 34 35 36 36 36 35
20 19 19 20 21 22 23 24 26 26 26 25 25 26 26 26 25 25 26 27 28 28 28 28 28 27 26 26 25 25 25 24 24 22 20 19 21 22 24 28 34 39 41 36 28 15 4 15 17 17 18 20 18 18 21 24 25 25 26 27 28 29 31 31 30 30 31 31 32 34 35 35 35 35
19 19 20 21 21 22 23 23 24 25 25 25 25 25 25 26 25 25 25 26 27 27 27 26 25 24 24 23 23 22 22 22 22 22 20 18 19 20 22 26 30 36 39 36 30 21 8 9 20 19 16 19 20 18 18 24 26 25 26 27 27 28 30 30 29 29 29 29 30 31 33 34 34 34
19 19 20 21 21 22 22 22 23 24 25 25 25 26 25 25 24 24 24 24 25 24 23 22 21 21 21 21 21 21 22 21 21 21 19 18 17 18 21 23 26 31 36 37 31 27 21 6 11 19 19 21 23 20 17 22 27 28 27 27 28 29 29 29 28 28 29 29 29 31 32 33 34 35
20 20 21 22 22 22 22 22 24 25 25 26 26 26 25 23 23 23 22 22 21 20 19 18 18 18 18 19 19 20 21 22 21 21 20 18 16 16 17 20 23 27 32 36 34 30 27 19 6 6 14 20 22 22 19 20 23 26 27 28 28 28 27 27 27 28 28 29 30 32 33 34 34 35
21 22 22 23 23 23 23 23 24 25 26 26 26 25 23 22 21 21 19 18 17 16 16 16 16 16 16 17 18 19 20 21 21 21 20 18 15 15 15 17 20 24 27 32 35 35 31 24 18 12 5 7 15 20 21 19 18 22 27 29 29 28 25 24 25 27 28 29 30 32 32 33 33 33
23 23 24 24 24 24 23 24 24 25 25 26 25 23 22 20 19 17 15 14 13 13 13 14 14 15 15 16 17 18 19 20 20 21 20 18 15 14 14 14 16 21 24 26 29 34 34 27 18 16 13 5 5 12 18 19 18 20 25 27 27 26 24 23 25 26 28 29 30 29 30 30 31 32
24 25 26 26 25 24 24 24 24 24 24 24 23 21 20 18 17 15 13 11 11 12 12 13 13 14 15 16 17 17 18 19 19 20 20 19 17 14 13 13 13 15 19 22 23 26 31 31 23 16 14 11 7 4 5 13 19 23 24 25 26 25 25 25 27 28 29 29 28 27 27 27 28 29
25 26 26 25 24 24 24 24 23 23 22 23 22 20 17 15 14 12 11 10 10 10 11 12 12 13 14 15 16 17 17 18 19 19 20 20 19 16 14 12 12 11 13 16 19 20 25 30 30 23 18 15 14 15 15 10 7 15 21 24 26 27 27 28 29 30 30 29 28 27 27 26 25 25
24 24 24 24 24 24 24 23 22 20 20 21 20 17 15 13 11 10 10 9 9 10 11 12 13 14 15 15 15 16 16 17 18 18 19 19 19 18 15 12 11 10 10 12 14 16 20 25 28 27 25 20 16 15 18 20 18 14 10 13 19 24 28 30 30 29 30 30 29 28 28 27 26 26
Wind_Direction
300 298 295 292 291 290 293 297 298 296 293 291 292 295 297 299 300 299 298 298 299 298 296 294 291 289 289 287 285 280 274 270 268 267 267 268 269 271 274 275 276 276 276 275 273 271 267 263 259 255 252 249 247 245 244 242 241 240 240 240 239 238 237 237 237 236 233 231 231 233 233 233 233 232
298 296 292 290 289 289 292 296 298 297 294 292 293 294 297 299 301 301 301 301 301 299 298 299 298 294 291 289 287 284 280 275 272 270 269 270 271 272 273 275 276 276 276 275 274 272 270 266 262 257 253 251 248 246 244 243 241 239 239 239 238 237 236 236 236 237 236 233 231 232 233 233 233 233
296 293 291 289 288 289 290 293 295 295 294 293 293 295 298 299 301 302 301 301 301 300 299 300 300 298 295 291 287 285 283 282 279 275 273 273 273 274 275 276 277 277 276 276 275 273 271 268 264 260 255 251 248 246 244 243 241 239 238 238 238 237 236 235 235 236 237 235 233 231 232 233 234 234
294 293 291 291 291 291 292 294 293 293 292 293 295 297 299 300 301 301 299 300 299 299 299 300 301 300 297 295 291 287 285 285 284 282 280 279 278 277 278 279 280 280 279 277 276 274 272 269 266 262 257 252 248 246 245 243 241 240 238 237 237 237 236 236 235 235 236 237 235 233 232 232 233 234
298 297 296 296 295 294 295 296 295 294 293 294 296 298 300 301 301 300 298 299 299 298 298 299 300 301 299 297 296 291 288 286 285 285 284 283 282 281 280 280 281 282 281 280 278 276 274 271 267 263 259 253 248 245 244 243 241 240 238 237 237 237 237 237 236 235 234 235 236 235 234 233 233 234
301 302 302 301 298 297 298 298 297 296 295 296 297 299 301 301 300 299 299 299 300 299 297 297 298 300 300 300 297 293 290 288 286 285 285 284 283 282 282 282 283 284 284 284 282 280 276 273 269 264 259 255 249 244 242 242 241 239 238 237 237 237 237 237 236 235 234 234 234 235 236 235 234 234
304 304 305 304 301 299 300 300 299 299 298 298 298 299 300 300 299 298 298 300 301 300 297 297 298 300 300 299 297 293 290 289 288 287 287 286 285 284 285 286 286 287 287 287 287 285 281 276 271 266 261 255 250 245 241 240 240 239 238 237 236 236 236 236 235 234 234 234 234 234 235 236 236 235
306 305 304 303 301 299 300 301 300 300 299 298 298 298 298 298 297 297 297 299 300 299 298 298 299 300 301 299 297 296 293 292 291 292 292 291 288 288 290 290 291 291 292 292 291 288 285 280 275 269 263 257 251 246 241 239 238 238 237 236 235 235 235 235 234 233 233 233 234 234 234 235 236 236
307 305 303 301 299 299 300 300 300 299 298 297 297 298 297 296 296 295 296 297 297 296 297 297 298 301 302 301 300 300 297 294 294 295 294 293 291 292 293 293 294 295 296 296 294 290 286 282 277 272 265 258 252 247 241 238 236 236 236 236 235 234 234 233 233 232 232 232 233 234 234 234 234 235
308 306 303 301 298 298 299 299 299 297 297 297 297 297 296 295 294 294 294 294 294 294 295 297 299 301 302 301 302 302 300 298 298 298 295 293 294 295 295 295 297 299 299 299 297 293 287 281 277 272 268 261 254 248 242 237 235 235 235 235 235 233 233 232 232 232 232 232 233 233 233 234 234 235
309 307 304 301 298 298 298 298 298 296 296 297 297 298 297 295 293 292 292 293 294 294 295 296 298 300 300 301 303 304 301 300 301 300 297 296 297 298 298 299 301 303 303 302 300 295 287 280 275 272 268 262 255 249 243 237 234 234 233 234 234 233 232 231 232 232 232 232 232 233 233 234 235 235
309 309 306 302 300 299 298 298 298 298 297 298 299 300 299 297 294 292 292 293 294 294 295 296 298 298 299 302 304 304 303 303 301 299 299 299 301 301 301 303 305 307 307 306 302 295 286 278 273 271 269 264 256 249 243 237 233 232 232 232 232 233 231 230 230 232 232 232 232 232 233 234 235 236
308 309 307 304 302 301 300 300 300 300 299 299 299 300 300 299 295 293 293 295 296 296 296 297 297 297 299 303 304 304 305 305 303 301 301 302 303 304 304 306 309 310 309 307 303 296 287 277 271 269 268 265 258 250 244 238 232 230 231 231 231 232 231 229 229 230 231 231 231 232 232 233 235 236
306 307 306 305 304 303 303 303 303 303 302 300 299 300 300 300 298 295 294 296 297 297 297 297 297 298 301 303 303 304 307 306 304 305 305 305 305 307 308 309 312 313 311 308 304 298 293 283 272 267 266 264 259 251 244 238 232 229 229 229 229 230 231 229 228 229 230 230 230 232 232 233 234 235
302 304 305 305 305 304 304 304 304 303 303 302 300 299 299 300 300 298 297 297 298 299 298 297 298 301 302 303 304 307 308 306 306 307 308 308 309 312 313 312 313 317 318 312 306 302 299 291 277 268 265 262 259 252 244 238 232 228 228 228 227 228 229 229 228 228 229 230 231 232 233 232 233 234
300 301 303 304 304 305 304 304 302 300 299 298 297 297 298 299 300 298 297 298 299 299 297 297 299 303 304 304 306 308 307 306 307 308 308 309 312 315 316 314 316 321 323 317 308 303 301 295 283 271 263 259 257 253 245 238 232 228 226 227 226 226 227 227 228 228 228 229 230 231 231 231 230 231
297 298 301 302 304 305 304 303 300 297 295 293 294 296 297 298 298 296 295 298 299 298 296 297 301 304 305 305 307 308 307 306 307 308 307 309 314 316 316 317 319 323 324 320 310 302 299 297 287 272 261 256 255 252 245 237 231 227 225 226 225 225 226 227 227 227 228 228 229 229 229 228 228 229
294 295 300 302 305 306 305 303 299 296 294 294 295 296 295 296 295 293 295 297 297 295 296 298 302 305 305 305 305 306 306 305 307 307 306 309 314 317 316 317 321 322 322 320 312 302 299 298 290 274 259 253 252 251 245 236 230 226 224 225 225 224 225 226 226 226 226 226 227 227 226 225 226 227
292 295 301 304 306 307 305 303 299 295 295 296 297 296 294 294 293 293 295 295 293 293 296 298 301 303 304 303 303 304 305 304 305 304 304 308 315 316 313 315 319 320 321 321 315 307 303 299 291 277 258 249 250 249 245 235 228 224 223 224 224 223 223 225 225 224 224 223 223 223 223 224 225 227
294 299 303 305 306 306 305 303 299 297 297 298 298 296 294 294 294 295 294 291 291 294 296 298 299 301 302 302 302 303 304 304 304 302 302 307 313 312 310 312 317 320 321 322 317 309 306 302 294 281 258 246 247 247 243 234 226 223 222 222 224 223 223 224 224 223 222 221 221 222 222 224 225 227
300 303 305 305 305 305 306 304 301 300 300 300 299 296 295 296 296 294 292 290 292 295 295 297 298 299 301 301 300 302 302 303 304 303 303 306 309 309 309 312 318 321 321 321 317 309 307 305 296 282 258 243 245 246 240 232 225 221 220 221 223 223 223 223 223 223 222 221 221 222 224 225 226 227
302 303 304 305 305 306 307 306 303 303 302 300 298 296 296 297 296 295 293 292 293 294 294 295 296 297 299 298 298 300 301 301 302 301 303 306 308 308 310 314 320 321 320 321 318 311 308 307 296 282 259 241 242 245 238 229 223 220 219 219 221 222 223 223 222 222 222 222 222 224 225 225 226 227
300 302 303 304 305 307 307 306 305 304 301 298 296 296 297 298 299 298 297 296 295 294 293 293 293 294 295 295 296 298 298 299 299 300 303 306 308 309 311 317 321 321 319 321 319 311 309 306 295 279 258 242 240 241 235 227 222 219 218 218 220 222 223 223 222 222 222 223 224 225 226 226 225 226
299 301 302 304 305 307 307 306 304 302 299 296 295 296 299 300 302 301 300 300 299 298 297 296 295 295 294 294 295 296 297 298 299 301 304 307 308 309 313 320 323 319 317 318 316 309 308 306 291 268 250 241 237 235 230 223 219 218 218 218 219 220 222 222 222 222 223 223 224 225 225 225 225 225
299 300 302 304 305 306 305 304 301 298 296 294 296 299 301 303 303 302 302 303 303 303 303 302 300 299 298 297 297 297 298 300 301 303 305 308 309 311 316 323 324 320 316 315 312 308 306 301 285 261 246 240 234 227 222 217 214 215 217 217 218 219 220 221 221 221 222 222 222 223 223 225 225 225
298 300 302 304 305 305 303 299 295 293 294 296 300 302 302 303 303 303 304 305 306 307 308 307 306 304 302 301 300 301 301 302 304 305 308 310 311 312 319 325 326 323 319 313 309 306 302 294 279 263 252 243 233 222 216 212 209 211 215 216 218 219 219 220 219 220 221 221 220 220 222 224 225 225
298 301 303 304 305 303 299 294 291 291 295 300 303 303 302 302 302 304 306 306 306 309 310 310 311 308 306 305 304 304 304 305 307 309 311 313 313 314 323 328 328 327 322 313 305 303 299 286 275 268 257 245 232 217 210 208 205 207 212 215 216 218 218 218 218 218 219 220 219 220 222 223 224 225
298 301 302 303 303 299 295 291 290 292 297 302 304 302 301 302 303 304 306 305 306 308 310 312 313 311 309 308 307 307 308 309 311 312 313 315 315 316 326 331 330 331 329 316 303 300 294 279 274 272 256 240 228 214 205 204 202 204 209 213 216 218 218 217 217 217 218 219 219 219 221 222 223 224
298 300 301 301 300 296 293 291 291 294 299 302 301 300 300 301 302 303 304 304 305 307 309 312 314 314 312 311 311 311 313 314 315 315 314 316 315 318 328 334 333 335 334 319 301 295 284 271 277 273 251 236 225 209 199 199 200 202 207 211 215 218 217 215 215 215 217 218 219 220 220 221 223 224
298 300 300 299 297 296 294 293 293 295 298 298 298 298 298 299 300 301 302 303 304 307 311 314 316 316 315 315 316 317 318 318 317 316 314 316 318 322 331 337 337 339 336 318 300 291 269 262 274 266 240 229 219 204 196 196 198 201 206 211 214 216 216 214 213 213 215 217 219 220 221 222 223 225
298 299 299 298 298 298 297 296 294 294 295 295 297 298 299 300 302 302 303 305 306 309 313 316 318 318 318 319 320 320 321 320 318 316 315 316 320 326 335 340 341 343 344 323 301 293 262 252 265 255 228 219 209 197 194 196 198 202 206 210 214 215 214 213 212 212 214 217 219 220 221 222 224 225
298 299 300 300 300 300 300 299 297 296 296 297 299 302 303 304 306 306 307 308 309 312 315 317 319 320 319 320 321 320 322 322 319 317 316 316 321 329 338 343 345 347 352 345 314 306 286 256 252 237 214 207 200 195 197 199 200 204 207 210 214 214 213 212 212 212 214 217 219 220 220 221 223 225
300 301 301 301 301 301 301 300 298 298 299 300 302 304 305 307 308 308 309 310 311 313 315 317 320 320 319 320 320 319 321 323 321 319 317 317 323 331 339 345 348 350 356 358 341 324 308 265 240 218 202 199 196 196 201 202 202 207 210 211 213 214 213 212 212 212 215 217 218 220 220 220 222 223
301 302 301 300 300 300 299 298 298 299 301 302 304 305 305 306 307 308 309 311 312 314 316 317 319 319 318 319 319 318 321 323 322 320 319 320 325 333 340 346 351 353 357 360 351 327 305 257 224 206 199 200 202 203 204 204 206 209 210 211 213 214 213 213 213 213 216 217 218 219 220 220 221 222
301 300 298 297 296 297 296 296 297 298 301 302 303 304 305 306 307 308 311 313 313 314 315 317 318 317 318 318 319 320 321 323 322 322 321 321 326 335 343 348 352 356 358 1 0 339 285 230 207 201 200 201 205 208 208 208 210 211 210 210 212 213 213 214 214 216 219 221 221 220 220 220 220 221
298 296 295 294 294 295 295 296 298 299 301 303 304 305 306 307 308 310 312 312 312 313 315 316 316 317 317 319 321 322 323 324 323 323 324 323 327 337 347 350 353 357 360 3 8 359 254 213 199 202 209 210 210 212 213 212 212 212 210 210 211 212 212 213 215 217 220 223 224 224 223 222 221 222
293 293 294 294 295 296 297 298 299 300 302 304 305 307 308 309 310 311 311 310 311 313 315 316 316 318 320 322 325 326 325 326 325 325 327 328 329 339 350 354 356 359 2 5 11 13 256 213 205 207 216 220 220 219 219 218 216 213 210 208 208 209 210 212 215 218 221 223 226 226 226 225 225 225
289 291 294 295 296 297 298 299 299 300 302 304 306 308 309 311 312 312 311 311 313 314 315 316 317 320 324 326 328 330 330 330 329 329 330 331 332 340 352 358 359 1 3 5 11 19 20 219 217 219 220 218 218 221 220 217 216 215 212 208 205 204 207 211 216 218 221 224 226 226 226 227 227 227
287 290 295 297 298 298 299 299 299 299 301 304 307 309 310 311 312 311 311 312 313 313 315 317 320 324 328 332 335 338 338 336 335 335 335 334 337 343 351 357 2 5 7 9 11 18 26 30 223 229 229 224 229 241 234 215 211 213 211 207 205 204 206 211 216 219 221 223 224 225 225 225 225 226
285 292 296 298 299 299 298 298 299 300 302 304 307 309 310 310 309 309 311 312 312 314 316 320 323 328 334 339 343 346 345 342 342 345 343 340 340 341 345 355 6 8 9 11 14 18 25 36 39 247 238 234 242 254 249 227 216 214 211 207 205 206 208 211 215 220 222 223 224 225 225 224 225 226
286 291 295 296 297 297 297 298 299 301 302 304 306 307 307 307 307 308 310 310 312 314 317 321 325 332 338 343 347 350 350 348 349 352 352 347 341 337 340 354 7 10 8 11 16 20 24 31 40 38 20 243 243 251 253 244 229 221 218 214 209 207 209 213 217 221 223 224 225 227 226 226 227 227
286 290 293 294 294 294 295 297 298 300 301 303 303 304 304 306 306 307 308 309 311 314 318 322 328 334 340 345 349 351 352 353 353 355 357 355 347 340 342 355 9 11 7 7 13 19 21 24 33 46 50 53 236 248 255 253 240 226 223 221 215 212 214 218 221 223 225 226 228 229 228 228 229 229
286 289 290 291 291 292 293 295 297 299 301 301 300 301 302 303 304 304 305 309 311 314 319 323 327 333 338 342 346 348 350 352 353 354 357 359 357 350 348 359 12 13 6 4 7 13 17 21 26 37 51 62 82 122 219 240 240 238 234 229 221 216 217 220 223 226 228 228 228 229 230 229 230 230
285 286 287 288 288 290 292 294 296 299 299 297 297 299 299 299 298 297 300 305 308 311 315 320 324 329 333 337 340 343 344 347 349 352 355 359 1 360 355 359 12 18 14 10 7 5 11 18 22 27 38 52 69 81 87 102 182 224 235 237 231 222 218 221 226 230 230 228 227 227 227 228 228 228
284 284 284 285 287 289 291 294 296 296 295 293 294 296 295 292 290 289 292 297 301 304 309 315 320 324 327 331 333 336 339 341 344 348 352 355 0 4 2 359 5 16 24 23 14 7 9 15 19 24 30 38 52 69 76 80 90 111 157 204 221 224 225 226 228 229 228 227 226 225 224 224 224 225
Height
3163 3162 3161 3160 3159 3158 3157 3156 3155 3155 3154 3153 3152 3151 3150 3148 3147 3147 3147 3148 3147 3145 3143 3143 3142 3141 3139 3138 3138 3137 3136 3135 3134 3134 3135 3135 3135 3135 3135 3135 3134 3134 3133 3133 3133 3133 3133 3134 3134 3135 3135 3136 3137 3138 3140 3142 3144 3147 3149 3151 3153 3156 3158 3160 3162 3164 3166 3168 3169 3171 3173 3175 3176 3178
3161 3160 3159 3158 3157 3156 3155 3154 3153 3152 3151 3150 3149 3148 3147 3146 3145 3143 3142 3143 3144 3142 3140 3139 3139 3138 3136 3135 3134 3133 3133 3132 3131 3131 3131 3131 3131 3131 3130 3130 3129 3129 3128 3128 3127 3127 3127 3128 3128 3129 3129 3130 3131 3132 3134 3135 3138 3140 3143 3145 3148 3150 3153 3155 3157 3159 3161 3163 3165 3167 3169 3170 3172 3174
3159 3158 3156 3155 3155 3153 3152 3152 3151 3150 3148 3147 3146 3145 3145 3143 3142 3141 3139 3139 3140 3138 3136 3136 3135 3134 3132 3132 3131 3130 3129 3128 3127 3127 3127 3127 3126 3126 3125 3125 3125 3124 3123 3123 3122 3121 3121 3121 3122 3122 3123 3124 3125 3126 3128 3129 3131 3134 3136 3139 3142 3144 3147 3149 3151 3153 3156 3158 3160 3162 3164 3166 3168 3170
3156 3156 3154 3153 3152 3151 3150 3149 3148 3147 3146 3145 3143 3142 3141 3140 3139 3138 3136 3134 3136 3135 3133 3132 3132 3130 3128 3128 3127 3126 3125 3125 3123 3123 3123 3122 3121 3121 3121 3120 3119 3118 3118 3117 3116 3115 3115 3115 3115 3116 3116 3117 3119 3120 3121 3123 3125 3127 3130 3133 3136 3138 3141 3143 3146 3148 3150 3153 3155 3158 3160 3161 3163 3165
3154 3153 3152 3151 3149 3148 3147 3146 3145 3145 3143 3142 3141 3139 3138 3137 3136 3134 3132 3131 3131 3132 3131 3128 3128 3127 3125 3124 3124 3122 3121 3121 3120 3119 3119 3117 3116 3116 3115 3115 3115 3113 3112 3111 3111 3110 3109 3108 3108 3109 3109 3110 3112 3113 3115 3117 3119 3121 3123 3126 3129 3132 3135 3137 3140 3142 3145 3148 3150 3153 3155 3157 3159 3161
3152 3151 3150 3149 3147 3145 3144 3144 3143 3142 3141 3139 3138 3137 3135 3134 3133 3131 3129 3127 3126 3127 3128 3126 3125 3124 3122 3121 3121 3119 3117 3116 3115 3115 3114 3113 3112 3111 3110 3110 3109 3108 3107 3105 3104 3104 3103 3102 3101 3101 3102 3103 3104 3106 3108 3110 3112 3114 3117 3119 3122 3125 3128 3131 3134 3137 3139 3142 3145 3147 3150 3152 3154 3156
3150 3148 3148 3147 3145 3143 3142 3142 3140 3139 3138 3137 3135 3134 3133 3131 3130 3128 3125 3124 3122 3122 3123 3123 3121 3120 3119 3117 3117 3116 3113 3112 3110 3110 3109 3108 3107 3106 3105 3104 3103 3103 3101 3100 3098 3097 3096 3095 3094 3094 3094 3095 3097 3099 3101 3103 3105 3108 3110 3112 3115 3118 3122 3125 3128 3131 3134 3136 3139 3142 3144 3147 3150 3152
3147 3146 3145 3144 3143 3141 3140 3139 3138 3137 3135 3134 3133 3131 3130 3128 3127 3126 3123 3121 3120 3118 3117 3118 3117 3115 3114 3114 3113 3112 3109 3107 3106 3105 3104 3102 3101 3101 3100 3099 3097 3097 3096 3094 3092 3090 3089 3088 3087 3087 3086 3087 3089 3091 3093 3095 3098 3100 3103 3106 3108 3112 3115 3118 3122 3125 3128 3130 3133 3136 3139 3141 3144 3147
3144 3143 3143 3141 3140 3138 3138 3137 3136 3134 3133 3132 3130 3129 3127 3126 3124 3123 3121 3119 3117 3115 3113 3113 3113 3111 3110 3109 3109 3107 3104 3102 3101 3100 3099 3097 3095 3095 3094 3093 3092 3091 3089 3088 3086 3084 3081 3080 3080 3079 3079 3079 3081 3083 3085 3088 3090 3093 3096 3099 3102 3105 3108 3112 3115 3119 3121 3124 3127 3130 3133 3136 3139 3141
3141 3140 3139 3138 3137 3136 3135 3134 3133 3132 3130 3129 3128 3126 3124 3123 3121 3119 3118 3116 3114 3112 3110 3109 3108 3108 3106 3104 3104 3103 3100 3097 3095 3094 3093 3091 3090 3089 3088 3087 3086 3085 3083 3081 3079 3077 3074 3072 3071 3071 3071 3071 3072 3074 3077 3080 3083 3086 3089 3092 3095 3098 3102 3105 3109 3112 3115 3118 3121 3125 3128 3131 3134 3136
3139 3138 3136 3135 3134 3133 3132 3131 3130 3129 3128 3126 3125 3123 3121 3120 3118 3116 3115 3114 3111 3109 3107 3106 3104 3103 3102 3100 3099 3099 3096 3093 3091 3088 3085 3084 3085 3084 3082 3080 3080 3078 3076 3074 3072 3070 3067 3064 3063 3063 3063 3063 3064 3066 3069 3071 3075 3078 3081 3085 3088 3092 3095 3099 3103 3106 3110 3113 3116 3119 3122 3125 3128 3131
3136 3135 3134 3132 3131 3130 3129 3128 3127 3125 3124 3123 3121 3120 3119 3116 3115 3113 3112 3110 3108 3105 3103 3102 3101 3099 3098 3097 3095 3093 3092 3089 3087 3085 3080 3077 3077 3076 3075 3074 3073 3070 3068 3066 3064 3062 3060 3057 3055 3054 3054 3055 3056 3057 3060 3063 3067 3070 3074 3077 3081 3085 3089 3093 3096 3100 3104 3107 3110 3113 3116 3120 3123 3126
3134 3132 3131 3130 3128 3127 3126 3124 3123 3122 3120 3119 3118 3117 3116 3113 3111 3109 3108 3106 3104 3102 3100 3098 3097 3095 3094 3093 3091 3088 3087 3085 3082 3080 3077 3074 3071 3069 3067 3067 3067 3064 3060 3057 3054 3053 3052 3049 3047 3046 3045 3047 3049 3049 3051 3055 3059 3063 3067 3070 3074 3078 3082 3086 3090 3094 3098 3101 3104 3108 3111 3114 3117 3121
3131 3130 3128 3127 3125 3124 3122 3120 3119 3117 3116 3115 3114 3113 3112 3110 3108 3106 3104 3102 3100 3098 3096 3094 3093 3092 3090 3090 3087 3084 3083 3080 3077 3074 3072 3069 3066 3063 3060 3058 3059 3059 3054 3049 3045 3045 3045 3042 3039 3038 3038 3039 3041 3041 3043 3047 3051 3055 3060 3063 3068 3072 3076 3080 3084 3087 3091 3095 3099 3102 3105 3109 3112 3115
3128 3127 3125 3124 3122 3120 3118 3116 3115 3113 3112 3111 3110 3109 3107 3105 3104 3102 3100 3098 3096 3094 3092 3090 3090 3088 3086 3085 3083 3080 3078 3075 3072 3070 3067 3064 3060 3057 3053 3049 3049 3051 3048 3041 3035 3035 3037 3035 3031 3030 3030 3031 3032 3033 3035 3039 3043 3048 3052 3056 3061 3065 3069 3073 3077 3081 3085 3089 3093 3097 3100 3104 3107 3110
3125 3123 3122 3120 3119 3117 3115 3113 3111 3109 3109 3108 3107 3105 3104 3102 3100 3098 3095 3093 3092 3090 3088 3086 3086 3085 3082 3080 3079 3077 3074 3070 3068 3066 3063 3059 3055 3053 3049 3044 3041 3043 3041 3034 3027 3025 3027 3028 3024 3021 3023 3023 3024 3026 3028 3031 3035 3040 3045 3049 3054 3058 3062 3066 3071 3075 3079 3083 3087 3091 3095 3099 3102 3105
3121 3119 3118 3116 3115 3114 3111 3109 3108 3106 3105 3104 3103 3102 3100 3098 3097 3094 3092 3090 3088 3086 3084 3082 3082 3081 3078 3075 3074 3074 3070 3066 3064 3061 3058 3055 3052 3048 3044 3040 3037 3036 3034 3029 3020 3015 3017 3020 3016 3014 3016 3017 3017 3018 3020 3024 3028 3033 3038 3043 3047 3051 3056 3060 3065 3069 3073 3077 3081 3086 3090 3093 3097 3100
3118 3116 3114 3112 3111 3110 3108 3106 3104 3102 3101 3100 3099 3098 3096 3094 3093 3091 3089 3087 3084 3082 3080 3078 3077 3077 3075 3072 3070 3070 3067 3063 3060 3057 3052 3050 3047 3043 3038 3035 3032 3031 3029 3024 3013 3005 3008 3012 3007 3006 3009 3010 3009 3010 3013 3016 3020 3025 3031 3036 3040 3045 3050 3054 3059 3063 3067 3072 3076 3080 3084 3088 3091 3095
3114 3112 3110 3108 3107 3105 3104 3103 3100 3098 3097 3096 3095 3093 3092 3090 3089 3088 3086 3083 3081 3079 3077 3075 3073 3072 3071 3069 3067 3066 3064 3060 3057 3053 3048 3046 3043 3037 3032 3029 3027 3025 3023 3019 3008 2997 2999 3003 2999 2998 3002 3002 3001 3003 3005 3008 3013 3018 3023 3029 3034 3039 3043 3048 3053 3057 3062 3067 3071 3075 3079 3082 3086 3090
3111 3109 3107 3104 3103 3101 3100 3099 3097 3094 3093 3091 3090 3088 3088 3087 3086 3085 3083 3080 3077 3076 3074 3072 3070 3068 3067 3065 3063 3062 3060 3057 3054 3049 3045 3043 3040 3033 3027 3023 3020 3017 3014 3013 3004 2992 2990 2993 2991 2990 2993 2993 2992 2995 2998 3001 3006 3011 3016 3022 3027 3033 3037 3042 3047 3052 3057 3062 3066 3070 3074 3077 3081 3085
3107 3105 3103 3101 3099 3097 3096 3094 3092 3090 3088 3086 3085 3084 3083 3083 3082 3081 3079 3076 3074 3073 3070 3068 3066 3065 3063 3062 3060 3058 3056 3053 3050 3044 3040 3039 3035 3029 3022 3016 3011 3007 3005 3005 3000 2988 2983 2985 2984 2982 2984 2984 2985 2988 2991 2994 2999 3004 3010 3016 3021 3027 3032 3037 3042 3047 3052 3056 3061 3065 3069 3072 3076 3080
3104 3102 3100 3097 3094 3092 3091 3089 3087 3085 3083 3082 3081 3080 3080 3079 3078 3077 3075 3073 3071 3069 3067 3066 3064 3062 3060 3058 3056 3055 3053 3050 3047 3042 3037 3034 3030 3024 3018 3011 3004 2997 2995 2997 2994 2983 2978 2979 2978 2976 2976 2977 2979 2982 2985 2989 2993 2998 3004 3010 3016 3021 3026 3031 3036 3041 3046 3051 3055 3060 3064 3068 3071 3074
3100 3099 3096 3093 3090 3088 3086 3084 3083 3081 3080 3079 3078 3077 3076 3076 3075 3073 3071 3069 3068 3066 3064 3063 3061 3059 3057 3055 3052 3051 3049 3047 3044 3039 3035 3030 3025 3019 3014 3009 3000 2988 2984 2988 2987 2978 2973 2973 2972 2971 2970 2970 2973 2977 2980 2983 2988 2993 2999 3005 3011 3016 3021 3026 3031 3036 3041 3046 3050 3055 3059 3062 3065 3068
3097 3095 3092 3089 3086 3083 3082 3080 3079 3078 3077 3076 3076 3074 3073 3072 3071 3069 3068 3066 3064 3063 3061 3059 3057 3056 3054 3051 3049 3047 3045 3043 3040 3036 3032 3028 3023 3016 3010 3005 2999 2987 2979 2980 2979 2972 2968 2968 2967 2966 2966 2965 2968 2972 2975 2979 2984 2989 2995 3001 3006 3012 3016 3021 3026 3031 3035 3040 3045 3049 3054 3057 3059 3062
3092 3090 3088 3085 3082 3080 3078 3077 3076 3075 3075 3074 3073 3072 3070 3069 3068 3066 3064 3063 3061 3059 3057 3056 3054 3052 3049 3047 3045 3043 3040 3038 3035 3032 3029 3025 3020 3015 3008 3001 2994 2983 2976 2974 2972 2967 2964 2962 2962 2962 2961 2961 2963 2967 2971 2975 2979 2985 2991 2997 3002 3008 3012 3016 3021 3026 3030 3035 3039 3044 3048 3051 3054 3058
3088 3085 3083 3081 3079 3077 3075 3075 3074 3073 3072 3071 3070 3069 3068 3066 3065 3063 3061 3060 3058 3056 3054 3052 3050 3048 3045 3043 3041 3038 3035 3033 3030 3027 3024 3021 3017 3012 3008 3000 2990 2979 2970 2966 2965 2963 2960 2958 2957 2958 2958 2958 2960 2963 2967 2971 2976 2982 2988 2993 2998 3003 3008 3012 3016 3021 3025 3030 3034 3039 3043 3047 3050 3054
3083 3081 3079 3077 3076 3074 3073 3072 3072 3071 3070 3068 3067 3066 3065 3063 3062 3060 3058 3056 3054 3053 3051 3048 3046 3044 3041 3039 3036 3034 3031 3028 3025 3022 3019 3016 3012 3009 3005 2999 2990 2980 2969 2961 2958 2958 2956 2954 2954 2954 2954 2955 2957 2960 2963 2968 2974 2979 2984 2989 2995 2999 3003 3007 3012 3016 3021 3025 3030 3035 3039 3042 3046 3050
3079 3077 3076 3075 3073 3071 3070 3069 3069 3068 3067 3065 3064 3063 3062 3060 3059 3057 3055 3053 3051 3049 3047 3045 3043 3040 3037 3035 3032 3029 3026 3023 3020 3017 3014 3011 3008 3004 2999 2994 2987 2978 2968 2959 2954 2953 2953 2952 2951 2951 2951 2953 2955 2958 2961 2966 2971 2976 2981 2986 2991 2995 3000 3004 3008 3012 3017 3021 3025 3029 3033 3037 3041 3045
3075 3074 3073 3072 3070 3069 3067 3067 3066 3065 3063 3062 3061 3060 3058 3057 3055 3054 3052 3050 3048 3046 3043 3041 3039 3036 3034 3031 3027 3024 3021 3018 3015 3012 3009 3007 3004 3000 2996 2990 2983 2974 2965 2957 2952 2951 2950 2949 2949 2949 2950 2951 2954 2957 2961 2965 2970 2974 2979 2983 2988 2992 2996 3000 3004 3008 3012 3016 3020 3024 3029 3034 3038 3041
3071 3070 3070 3069 3067 3066 3065 3064 3062 3061 3060 3059 3058 3057 3055 3054 3052 3050 3048 3046 3044 3042 3040 3037 3035 3032 3029 3027 3024 3020 3017 3014 3011 3007 3004 3002 3000 2996 2990 2984 2977 2970 2962 2955 2950 2949 2948 2947 2947 2947 2949 2951 2954 2957 2961 2965 2969 2973 2977 2981 2985 2989 2993 2997 3000 3004 3008 3012 3017 3021 3026 3030 3033 3036
3068 3067 3066 3065 3064 3062 3061 3060 3059 3058 3057 3056 3055 3053 3052 3050 3049 3047 3044 3042 3040 3038 3036 3033 3031 3028 3025 3023 3020 3017 3014 3011 3008 3004 3001 2998 2995 2992 2986 2979 2972 2966 2959 2953 2949 2947 2946 2946 2946 2947 2948 2951 2954 2957 2960 2964 2967 2971 2975 2978 2982 2986 2990 2994 2997 3001 3005 3009 3013 3017 3021 3024 3028 3031
3065 3064 3063 3061 3060 3059 3058 3057 3056 3055 3054 3053 3051 3050 3049 3047 3045 3043 3041 3039 3037 3034 3032 3030 3027 3025 3022 3019 3016 3013 3011 3008 3005 3002 2999 2996 2992 2989 2983 2977 2969 2962 2956 2951 2948 2945 2945 2945 2945 2946 2948 2951 2954 2957 2959 2962 2966 2970 2973 2976 2980 2984 2988 2991 2994 2998 3002 3006 3009 3012 3016 3019 3023 3027
3062 3060 3059 3057 3056 3055 3054 3054 3053 3052 3051 3049 3048 3046 3045 3043 3042 3040 3038 3036 3034 3031 3029 3027 3024 3021 3019 3017 3014 3011 3008 3006 3003 2999 2997 2994 2991 2987 2982 2977 2970 2962 2956 2950 2946 2944 2944 2943 2944 2946 2948 2951 2954 2957 2958 2961 2965 2968 2971 2974 2978 2982 2985 2988 2992 2996 2999 3001 3004 3008 3012 3016 3019 3023
3058 3057 3055 3054 3053 3052 3052 3051 3050 3049 3048 3046 3044 3043 3041 3040 3038 3037 3035 3033 3031 3029 3026 3024 3021 3018 3016 3014 3011 3008 3006 3003 3000 2997 2995 2992 2989 2985 2981 2976 2970 2964 2957 2951 2947 2945 2944 2944 2945 2947 2948 2951 2954 2956 2958 2961 2964 2967 2970 2973 2976 2979 2983 2987 2990 2993 2996 2999 3002 3005 3008 3012 3016 3019
3055 3054 3053 3052 3051 3050 3050 3049 3048 3046 3045 3043 3041 3040 3038 3037 3036 3034 3032 3030 3028 3026 3024 3021 3018 3016 3013 3011 3008 3006 3003 3001 2998 2996 2993 2990 2988 2984 2980 2976 2970 2964 2958 2952 2947 2945 2944 2944 2945 2947 2949 2951 2954 2956 2958 2960 2963 2965 2967 2970 2973 2977 2981 2984 2987 2990 2994 2997 3000 3002 3005 3008 3012 3016
3052 3051 3050 3050 3049 3048 3047 3046 3045 3043 3042 3040 3038 3037 3035 3034 3033 3031 3030 3028 3025 3023 3021 3019 3016 3014 3011 3009 3006 3003 3001 2998 2996 2994 2992 2989 2986 2984 2981 2977 2972 2966 2960 2954 2949 2945 2945 2945 2946 2948 2950 2951 2953 2955 2957 2959 2961 2964 2966 2969 2972 2975 2978 2981 2985 2988 2992 2994 2997 3000 3003 3006 3009 3013
3050 3049 3048 3047 3047 3046 3045 3043 3042 3040 3039 3037 3036 3034 3033 3032 3030 3029 3027 3025 3023 3021 3018 3016 3014 3012 3009 3007 3004 3002 2999 2996 2994 2992 2990 2988 2985 2983 2981 2977 2973 2968 2963 2957 2951 2947 2946 2946 2947 2948 2949 2950 2952 2954 2957 2958 2960 2962 2965 2967 2970 2972 2976 2979 2982 2986 2989 2991 2994 2997 3001 3004 3007 3010
3047 3047 3046 3045 3044 3043 3042 3040 3039 3037 3036 3035 3033 3032 3030 3029 3027 3026 3024 3022 3020 3018 3016 3014 3012 3010 3007 3005 3003 3000 2998 2996 2993 2991 2989 2987 2985 2983 2980 2977 2974 2970 2965 2959 2954 2950 2947 2946 2947 2947 2948 2950 2951 2953 2954 2956 2957 2960 2962 2964 2967 2970 2973 2976 2979 2983 2986 2988 2992 2995 2998 3001 3004 3007
3045 3044 3043 3042 3041 3040 3039 3037 3036 3034 3033 3032 3030 3029 3028 3026 3025 3023 3021 3019 3018 3016 3014 3012 3010 3008 3006 3004 3001 2999 2997 2994 2992 2990 2988 2986 2984 2982 2980 2977 2975 2972 2967 2962 2957 2953 2949 2947 2946 2947 2948 2949 2950 2951 2953 2954 2955 2957 2960 2962 2965 2967 2970 2973 2977 2980 2983 2986 2989 2991 2994 2997 3000 3002
3042 3041 3040 3039 3038 3037 3036 3034 3033 3032 3030 3029 3028 3026 3025 3023 3022 3020 3019 3017 3015 3014 3012 3011 3009 3007 3005 3003 3001 2999 2996 2993 2991 2989 2987 2985 2984 2982 2980 2978 2975 2972 2969 2965 2960 2956 2951 2948 2947 2947 2948 2949 2950 2951 2952 2953 2954 2956 2959 2961 2963 2966 2968 2971 2974 2977 2980 2983 2985 2987 2990 2992 2995 2997
3039 3038 3037 3036 3035 3034 3032 3031 3030 3029 3028 3026 3025 3024 3022 3021 3020 3018 3017 3015 3014 3013 3011 3010 3008 3006 3004 3003 3001 2999 2996 2993 2991 2988 2986 2984 2983 2982 2980 2978 2976 2973 2971 2967 2963 2958 2954 2951 2950 2950 2949 2949 2949 2949 2950 2951 2953 2955 2957 2959 2961 2963 2966 2969 2971 2974 2977 2980 2982 2984 2986 2989 2991 2993
3036 3035 3034 3033 3031 3030 3029 3028 3027 3026 3025 3024 3022 3021 3020 3019 3017 3016 3015 3014 3013 3011 3010 3009 3007 3005 3004 3002 3000 2998 2996 2994 2991 2989 2986 2985 2983 2982 2980 2979 2976 2974 2971 2969 2965 2962 2959 2956 2954 2953 2951 2949 2948 2948 2949 2950 2951 2953 2955 2957 2959 2961 2963 2966 2969 2972 2974 2977 2979 2981 2983 2985 2988 2990
3032 3031 3030 3029 3028 3027 3026 3025 3024 3023 3022 3021 3020 3019 3018 3016 3015 3014 3013 3012 3011 3010 3009 3008 3006 3005 3003 3001 3000 2998 2996 2993 2991 2989 2987 2985 2983 2982 2980 2979 2977 2974 2973 2970 2967 2965 2963 2960 2957 2955 2954 2951 2949 2948 2948 2949 2950 2951 2953 2955 2957 2959 2962 2964 2967 2969 2972 2974 2976 2978 2980 2982 2985 2988
3028 3027 3026 3026 3025 3024 3023 3022 3021 3020 3019 3018 3017 3017 3016 3015 3014 3012 3012 3011 3010 3009 3008 3007 3005 3004 3002 3001 2999 2997 2995 2993 2991 2989 2987 2985 2983 2981 2980 2978 2977 2975 2974 2972 2969 2968 2966 2963 2960 2958 2956 2954 2951 2950 2949 2948 2949 2950 2952 2953 2955 2957 2960 2963 2964 2966 2969 2971 2974 2976 2978 2980 2983 2986
3025 3024 3023 3022 3021 3021 3020 3019 3018 3017 3017 3016 3015 3014 3014 3013 3012 3011 3010 3010 3009 3008 3007 3006 3004 3003 3001 3000 2998 2997 2995 2993 2991 2989 2987 2986 2983 2981 2980 2979 2977 2976 2975 2973 2971 2969 2968 2966 2964 2961 2959 2957 2955 2953 2952 2950 2950 2950 2950 2952 2953 2956 2958 2960 2962 2964 2966 2968 2971 2973 2975 2978 2980 2983